owner,sensor,date,latitude,longitude,vertical_datum,direction_of_sea_water_velocity,sea_water_speed,upward_sea_water_velocity,qcFlag 
ADCP,ioos:station:wmo:42379:1,2009-06-01T00:04:00Z,27.3620,-90.1810,73.1,108.0,17.8,18.3,'11111222,11111222,11111222' 
ADCP,ioos:station:wmo:42379:1,2009-06-01T00:24:00Z,27.3620,-90.1810,73.1,97.0,16.1,17.5,'11111222,11111222,11111222' 
ADCP,ioos:station:wmo:42379:1,2009-06-01T00:44:00Z,27.3620,-90.1810,73.1,94.0,17.1,19.6,'11111222,11111222,11111222' 
ADCP,ioos:station:wmo:42379:1,2009-06-01T01:04:00Z,27.3620,-90.1810,73.1,86.0,16.4,19.3,'11111222,11111222,11111222' 
ADCP,ioos:station:wmo:42379:1,2009-06-01T01:24:00Z,27.3620,-90.1810,73.1,100.0,16.7,19.0,'11111222,11111222,11111222' 
ADCP,ioos:station:wmo:42379:1,2009-06-01T01:44:00Z,27.3620,-90.1810,73.1,83.0,14.2,21.2,'11111222,11111222,11111222' 
ADCP,ioos:station:wmo:42379:1,2009-06-01T02:04:00Z,27.3620,-90.1810,73.1,86.0,11.5,21.2,'11111222,11111222,11111222' 
ADCP,ioos:station:wmo:42379:1,2009-06-01T02:24:00Z,27.3620,-90.1810,73.1,83.0,13.3,21.9,'11111222,11111222,11111222' 
ADCP,ioos:station:wmo:42379:1,2009-06-01T02:44:00Z,27.3620,-90.1810,73.1,94.0,16.1,20.4,'11111222,11111222,11111222' 
ADCP,ioos:station:wmo:42379:1,2009-06-01T03:04:00Z,27.3620,-90.1810,73.1,76.0,17.9,19.8,'11111222,11111222,11111222' 
ADCP,ioos:station:wmo:42379:1,2009-06-01T03:24:00Z,27.3620,-90.1810,73.1,81.0,22.3,19.0,'11111222,11111222,11111222' 
ADCP,ioos:station:wmo:42379:1,2009-06-01T03:44:00Z,27.3620,-90.1810,73.1,79.0,19.5,19.0,'11111222,11111222,11111222' 
ADCP,ioos:station:wmo:42379:1,2009-06-01T04:04:00Z,27.3620,-90.1810,73.1,54.0,22.7,23.6,'11111222,11111222,11111222' 
ADCP,ioos:station:wmo:42379:1,2009-06-01T04:24:00Z,27.3620,-90.1810,73.1,76.0,17.6,20.7,'11111222,11111222,11111222' 
ADCP,ioos:station:wmo:42379:1,2009-06-01T04:44:00Z,27.3620,-90.1810,73.1,76.0,14.1,22.7,'11111222,11111222,11111222' 
ADCP,ioos:station:wmo:42379:1,2009-06-01T05:04:00Z,27.3620,-90.1810,73.1,73.0,16.2,23.3,'11111222,11111222,11111222' 
ADCP,ioos:station:wmo:42379:1,2009-06-01T05:24:00Z,27.3620,-90.1810,73.1,54.0,15.5,22.4,'11111222,11111222,11111222' 
ADCP,ioos:station:wmo:42379:1,2009-06-01T05:44:00Z,27.3620,-90.1810,73.1,56.0,15.0,22.8,'11111222,11111222,11111222' 
ADCP,ioos:station:wmo:42379:1,2009-06-01T06:04:00Z,27.3620,-90.1810,73.1,65.0,13.6,19.2,'11111222,11111222,11111222' 
ADCP,ioos:station:wmo:42379:1,2009-06-01T06:24:00Z,27.3620,-90.1810,73.1,66.0,10.8,20.1,'11111222,11111222,11111222' 
ADCP,ioos:station:wmo:42379:1,2009-06-01T06:44:00Z,27.3620,-90.1810,73.0,75.0,15.0,20.0,'11111222,11111222,11111222' 
ADCP,ioos:station:wmo:42379:1,2009-06-01T07:04:00Z,27.3620,-90.1810,73.1,74.0,14.1,19.3,'11111222,11111222,11111222' 
ADCP,ioos:station:wmo:42379:1,2009-06-01T07:24:00Z,27.3620,-90.1810,73.1,70.0,11.4,19.9,'11111222,11111222,11111222' 
ADCP,ioos:station:wmo:42379:1,2009-06-01T07:44:00Z,27.3620,-90.1810,73.0,52.0,14.7,23.4,'11111222,11111222,11111222' 
ADCP,ioos:station:wmo:42379:1,2009-06-01T08:04:00Z,27.3620,-90.1810,73.1,79.0,11.9,22.1,'11111222,11111222,11111222' 
ADCP,ioos:station:wmo:42379:1,2009-06-01T08:24:00Z,27.3620,-90.1810,73.1,61.0,15.8,21.6,'11111222,11111222,11111222' 
ADCP,ioos:station:wmo:42379:1,2009-06-01T08:44:00Z,27.3620,-90.1810,73.1,100.0,15.6,17.9,'11111222,11111222,11111222' 
ADCP,ioos:station:wmo:42379:1,2009-06-01T09:24:00Z,27.3620,-90.1810,73.0,86.0,10.7,20.6,'11111222,11111222,11111222' 
ADCP,ioos:station:wmo:42379:1,2009-06-01T09:44:00Z,27.3620,-90.1810,73.0,74.0,10.7,20.5,'11111222,11111222,11111222' 
ADCP,ioos:station:wmo:42379:1,2009-06-01T10:04:00Z,27.3620,-90.1810,73.0,112.0,14.7,18.0,'11111222,11111222,11111222' 
ADCP,ioos:station:wmo:42379:1,2009-06-01T10:24:00Z,27.3620,-90.1810,73.0,99.0,15.8,20.9,'11111222,11111222,11111222' 
ADCP,ioos:station:wmo:42379:1,2009-06-01T10:44:00Z,27.3620,-90.1810,73.0,92.0,13.3,18.8,'11111222,11111222,11111222' 
ADCP,ioos:station:wmo:42379:1,2009-06-01T11:04:00Z,27.3620,-90.1810,73.0,109.0,20.1,18.4,'11111222,11111222,11111222' 
ADCP,ioos:station:wmo:42379:1,2009-06-01T11:24:00Z,27.3620,-90.1810,73.0,114.0,18.4,16.7,'11111222,11111222,11111222' 
ADCP,ioos:station:wmo:42379:1,2009-06-01T11:44:00Z,27.3620,-90.1810,73.0,122.0,20.5,18.1,'11111222,11111222,11111222' 
ADCP,ioos:station:wmo:42379:1,2009-06-01T12:04:00Z,27.3620,-90.1810,73.1,124.0,16.9,18.4,'11111222,11111222,11111222' 
ADCP,ioos:station:wmo:42379:1,2009-06-01T12:24:00Z,27.3620,-90.1810,73.1,128.0,16.8,16.5,'11111222,11111222,11111222' 
ADCP,ioos:station:wmo:42379:1,2009-06-01T12:44:00Z,27.3620,-90.1810,73.1,92.0,11.9,16.6,'11111222,11111222,11111222' 
ADCP,ioos:station:wmo:42379:1,2009-06-01T13:04:00Z,27.3620,-90.1810,73.1,119.0,19.0,16.3,'11111222,11111222,11111222' 
ADCP,ioos:station:wmo:42379:1,2009-06-01T13:24:00Z,27.3620,-90.1810,73.1,138.0,15.4,17.9,'11111222,11111222,11111222' 
ADCP,ioos:station:wmo:42379:1,2009-06-01T13:44:00Z,27.3620,-90.1810,73.1,148.0,14.3,14.9,'11111222,11111222,11111222' 
ADCP,ioos:station:wmo:42379:1,2009-06-01T14:04:00Z,27.3620,-90.1810,73.1,149.0,20.7,18.0,'11111222,11111222,11111222' 
ADCP,ioos:station:wmo:42379:1,2009-06-01T14:24:00Z,27.3620,-90.1810,73.1,153.0,22.4,17.2,'11111222,11111222,11111222' 
ADCP,ioos:station:wmo:42379:1,2009-06-01T14:44:00Z,27.3620,-90.1810,73.1,160.0,28.3,15.8,'11111222,11111222,11111222' 
ADCP,ioos:station:wmo:42379:1,2009-06-01T15:04:00Z,27.3620,-90.1810,73.1,172.0,7.5,12.6,'11133222,11111222,11111222' 
ADCP,ioos:station:wmo:42379:1,2009-06-01T15:24:00Z,27.3620,-90.1810,73.1,161.0,23.5,14.0,'11111222,11111222,11111222' 
ADCP,ioos:station:wmo:42379:1,2009-06-01T15:44:00Z,27.3620,-90.1810,73.1,136.0,5.9,14.9,'11133222,11111222,11111222' 
ADCP,ioos:station:wmo:42379:1,2009-06-01T16:04:00Z,27.3620,-90.1810,73.1,138.0,7.2,14.0,'11133222,11111222,11111222' 
ADCP,ioos:station:wmo:42379:1,2009-06-01T16:24:00Z,27.3620,-90.1810,73.1,129.0,17.6,13.0,'11111222,11111222,11111222' 
ADCP,ioos:station:wmo:42379:1,2009-06-01T16:44:00Z,27.3620,-90.1810,73.1,116.0,22.6,14.3,'11111222,11111222,11111222' 
ADCP,ioos:station:wmo:42379:1,2009-06-01T17:04:00Z,27.3620,-90.1810,73.1,137.0,35.5,14.0,'11111222,11111222,11111222' 
ADCP,ioos:station:wmo:42379:1,2009-06-01T17:24:00Z,27.3620,-90.1810,73.1,121.0,18.8,14.6,'11111222,11111222,11111222' 
ADCP,ioos:station:wmo:42379:1,2009-06-01T17:44:00Z,27.3620,-90.1810,73.1,121.0,20.6,14.4,'11111222,11111222,11111222' 
ADCP,ioos:station:wmo:42379:1,2009-06-01T18:04:00Z,27.3620,-90.1810,73.1,87.0,15.6,15.8,'11111222,11111222,11111222' 
ADCP,ioos:station:wmo:42379:1,2009-06-01T18:24:00Z,27.3620,-90.1810,73.1,114.0,18.8,12.7,'11111222,11111222,11111222' 
ADCP,ioos:station:wmo:42379:1,2009-06-01T18:44:00Z,27.3620,-90.1810,73.1,116.0,17.0,12.3,'11111222,11111222,11111222' 
ADCP,ioos:station:wmo:42379:1,2009-06-01T19:04:00Z,27.3620,-90.1810,73.1,109.0,17.0,13.9,'11111222,11111222,11111222' 
ADCP,ioos:station:wmo:42379:1,2009-06-01T19:24:00Z,27.3620,-90.1810,73.1,120.0,19.5,13.9,'11111222,11111222,11111222' 
ADCP,ioos:station:wmo:42379:1,2009-06-01T19:44:00Z,27.3620,-90.1810,73.1,127.0,15.0,15.2,'11111222,11111222,11111222' 
ADCP,ioos:station:wmo:42379:1,2009-06-01T20:04:00Z,27.3620,-90.1810,73.1,134.0,23.0,13.6,'11111222,11111222,11111222' 
ADCP,ioos:station:wmo:42379:1,2009-06-01T20:24:00Z,27.3620,-90.1810,73.1,145.0,17.2,14.7,'11111222,11111222,11111222' 
ADCP,ioos:station:wmo:42379:1,2009-06-01T20:44:00Z,27.3620,-90.1810,73.1,118.0,9.5,15.6,'11133222,11111222,11111222' 
ADCP,ioos:station:wmo:42379:1,2009-06-01T21:04:00Z,27.3620,-90.1810,73.1,166.0,16.0,16.4,'11111222,11111222,11111222' 
ADCP,ioos:station:wmo:42379:1,2009-06-01T21:24:00Z,27.3620,-90.1810,73.1,155.0,6.5,16.5,'11133222,11111222,11111222' 
ADCP,ioos:station:wmo:42379:1,2009-06-01T21:44:00Z,27.3620,-90.1810,73.1,111.0,3.6,18.1,'11133222,11111222,11111222' 
ADCP,ioos:station:wmo:42379:1,2009-06-01T22:04:00Z,27.3620,-90.1810,73.1,127.0,10.2,16.0,'11111222,11111222,11111222' 
ADCP,ioos:station:wmo:42379:1,2009-06-01T22:24:00Z,27.3620,-90.1810,73.1,114.0,18.8,16.1,'11111222,11111222,11111222' 
ADCP,ioos:station:wmo:42379:1,2009-06-01T22:44:00Z,27.3620,-90.1810,73.1,80.0,15.7,18.7,'11111222,11111222,11111222' 
ADCP,ioos:station:wmo:42379:1,2009-06-01T23:04:00Z,27.3620,-90.1810,73.1,63.0,17.0,19.3,'11111222,11111222,11111222' 
ADCP,ioos:station:wmo:42379:1,2009-06-01T23:24:00Z,27.3620,-90.1810,73.1,51.0,17.1,16.8,'11111222,11111222,11111222' 
ADCP,ioos:station:wmo:42379:1,2009-06-01T23:44:00Z,27.3620,-90.1810,73.1,45.0,16.8,17.9,'11111222,11111222,11111222' 
ADCP,ioos:station:wmo:42379:1,2009-06-02T00:04:00Z,27.3620,-90.1810,73.1,24.0,10.7,17.1,'11111222,11111222,11111222' 
ADCP,ioos:station:wmo:42379:1,2009-06-02T00:24:00Z,27.3620,-90.1810,73.1,63.0,2.7,13.4,'11133222,11111222,11111222' 
ADCP,ioos:station:wmo:42379:1,2009-06-02T00:44:00Z,27.3620,-90.1810,73.1,164.0,6.6,7.8,'11133222,11111222,11111222' 
ADCP,ioos:station:wmo:42379:1,2009-06-02T01:04:00Z,27.3620,-90.1810,73.1,152.0,9.5,11.0,'11133222,11111222,11111222' 
ADCP,ioos:station:wmo:42379:1,2009-06-02T01:24:00Z,27.3620,-90.1810,73.1,140.0,12.1,8.3,'11111222,11111222,11111222' 
ADCP,ioos:station:wmo:42379:1,2009-06-02T01:44:00Z,27.3620,-90.1810,73.1,124.0,3.4,10.4,'11133222,11111222,11111222' 
ADCP,ioos:station:wmo:42379:1,2009-06-02T02:04:00Z,27.3620,-90.1810,73.1,158.0,7.5,11.3,'11133222,11111222,11111222' 
ADCP,ioos:station:wmo:42379:1,2009-06-02T02:24:00Z,27.3620,-90.1810,73.1,165.0,3.5,15.0,'11133222,11111222,11111222' 
ADCP,ioos:station:wmo:42379:1,2009-06-02T02:44:00Z,27.3620,-90.1810,73.1,240.0,9.4,20.0,'11133222,11111222,11111222' 
ADCP,ioos:station:wmo:42379:1,2009-06-02T03:04:00Z,27.3620,-90.1810,73.1,198.0,13.6,18.4,'11111222,11111222,11111222' 
ADCP,ioos:station:wmo:42379:1,2009-06-02T03:24:00Z,27.3620,-90.1810,73.1,240.0,12.6,20.0,'11111222,11111222,11111222' 
ADCP,ioos:station:wmo:42379:1,2009-06-02T03:44:00Z,27.3620,-90.1810,73.1,216.0,15.7,19.2,'11111222,11111222,11111222' 
ADCP,ioos:station:wmo:42379:1,2009-06-02T04:04:00Z,27.3620,-90.1810,73.1,206.0,9.7,18.7,'11133222,11111222,11111222' 
ADCP,ioos:station:wmo:42379:1,2009-06-02T04:24:00Z,27.3620,-90.1810,73.1,237.0,10.8,15.6,'11111222,11111222,11111222' 
ADCP,ioos:station:wmo:42379:1,2009-06-02T04:44:00Z,27.3620,-90.1810,73.1,219.0,13.9,18.1,'11111222,11111222,11111222' 
ADCP,ioos:station:wmo:42379:1,2009-06-02T05:04:00Z,27.3620,-90.1810,73.1,236.0,25.1,18.1,'11111222,11111222,11111222' 
ADCP,ioos:station:wmo:42379:1,2009-06-02T05:24:00Z,27.3620,-90.1810,73.1,213.0,19.2,17.6,'11111222,11111222,11111222' 
ADCP,ioos:station:wmo:42379:1,2009-06-02T05:44:00Z,27.3620,-90.1810,73.1,220.0,28.9,20.5,'11111222,11111222,11111222' 
ADCP,ioos:station:wmo:42379:1,2009-06-02T06:04:00Z,27.3620,-90.1810,73.1,202.0,31.6,18.2,'11111222,11111222,11111222' 
ADCP,ioos:station:wmo:42379:1,2009-06-02T06:24:00Z,27.3620,-90.1810,73.1,210.0,31.6,20.5,'11111222,11111222,11111222' 
ADCP,ioos:station:wmo:42379:1,2009-06-02T06:44:00Z,27.3620,-90.1810,73.1,205.0,33.1,15.1,'11111222,11111222,11111222' 
ADCP,ioos:station:wmo:42379:1,2009-06-02T07:04:00Z,27.3620,-90.1810,73.1,211.0,29.5,14.1,'11111222,11111222,11111222' 
ADCP,ioos:station:wmo:42379:1,2009-06-02T07:24:00Z,27.3620,-90.1810,73.1,209.0,24.2,13.6,'11111222,11111222,11111222' 
ADCP,ioos:station:wmo:42379:1,2009-06-02T07:44:00Z,27.3620,-90.1810,73.1,195.0,37.7,14.3,'11111222,11111222,11111222' 
ADCP,ioos:station:wmo:42379:1,2009-06-02T08:04:00Z,27.3620,-90.1810,73.1,198.0,28.8,13.4,'11111222,11111222,11111222' 
ADCP,ioos:station:wmo:42379:1,2009-06-02T08:24:00Z,27.3620,-90.1810,73.1,200.0,33.8,14.4,'11111222,11111222,11111222' 
ADCP,ioos:station:wmo:42379:1,2009-06-02T08:44:00Z,27.3620,-90.1810,73.1,197.0,37.2,15.4,'11111222,11111222,11111222' 
ADCP,ioos:station:wmo:42379:1,2009-06-02T09:04:00Z,27.3620,-90.1810,73.1,202.0,30.8,17.0,'11111222,11111222,11111222' 
ADCP,ioos:station:wmo:42379:1,2009-06-02T09:24:00Z,27.3620,-90.1810,73.1,200.0,30.9,15.9,'11111222,11111222,11111222' 
ADCP,ioos:station:wmo:42379:1,2009-06-02T09:44:00Z,27.3620,-90.1810,73.1,197.0,25.5,13.0,'11111222,11111222,11111222' 
ADCP,ioos:station:wmo:42379:1,2009-06-02T10:04:00Z,27.3620,-90.1810,73.1,184.0,26.6,13.6,'11111222,11111222,11111222' 
ADCP,ioos:station:wmo:42379:1,2009-06-02T10:24:00Z,27.3620,-90.1810,73.1,188.0,25.3,10.4,'11111222,11111222,11111222' 
ADCP,ioos:station:wmo:42379:1,2009-06-02T10:44:00Z,27.3620,-90.1810,73.1,180.0,25.1,13.4,'11111222,11111222,11111222' 
ADCP,ioos:station:wmo:42379:1,2009-06-02T11:04:00Z,27.3620,-90.1810,73.1,184.0,28.4,14.7,'11111222,11111222,11111222' 
ADCP,ioos:station:wmo:42379:1,2009-06-02T11:24:00Z,27.3620,-90.1810,73.1,182.0,33.6,13.4,'11111222,11111222,11111222' 
ADCP,ioos:station:wmo:42379:1,2009-06-02T11:44:00Z,27.3620,-90.1810,73.1,190.0,27.2,13.1,'11111222,11111222,11111222' 
ADCP,ioos:station:wmo:42379:1,2009-06-02T12:04:00Z,27.3620,-90.1810,73.1,194.0,32.8,12.7,'11111222,11111222,11111222' 
ADCP,ioos:station:wmo:42379:1,2009-06-02T12:24:00Z,27.3620,-90.1810,73.1,205.0,26.5,15.3,'11111222,11111222,11111222' 
ADCP,ioos:station:wmo:42379:1,2009-06-02T12:44:00Z,27.3620,-90.1810,73.1,214.0,30.7,15.4,'11111222,11111222,11111222' 
ADCP,ioos:station:wmo:42379:1,2009-06-02T13:04:00Z,27.3620,-90.1810,73.1,221.0,39.5,15.6,'11111222,11111222,11111222' 
ADCP,ioos:station:wmo:42379:1,2009-06-02T13:24:00Z,27.3620,-90.1810,73.1,219.0,39.6,15.0,'11111222,11111222,11111222' 
ADCP,ioos:station:wmo:42379:1,2009-06-02T13:44:00Z,27.3620,-90.1810,73.1,216.0,37.3,15.8,'11111222,11111222,11111222' 
ADCP,ioos:station:wmo:42379:1,2009-06-02T14:04:00Z,27.3620,-90.1810,73.1,229.0,38.7,17.9,'11111222,11111222,11111222' 
ADCP,ioos:station:wmo:42379:1,2009-06-02T14:24:00Z,27.3620,-90.1810,73.1,221.0,33.6,15.0,'11111222,11111222,11111222' 
ADCP,ioos:station:wmo:42379:1,2009-06-02T14:44:00Z,27.3620,-90.1810,73.1,214.0,40.0,16.7,'11111222,11111222,11111222' 
ADCP,ioos:station:wmo:42379:1,2009-06-02T15:04:00Z,27.3620,-90.1810,73.1,228.0,34.3,17.9,'11111222,11111222,11111222' 
ADCP,ioos:station:wmo:42379:1,2009-06-02T15:24:00Z,27.3620,-90.1810,73.1,219.0,30.8,14.0,'11111222,11111222,11111222' 
ADCP,ioos:station:wmo:42379:1,2009-06-02T15:44:00Z,27.3620,-90.1810,73.1,225.0,34.2,13.3,'11111222,11111222,11111222' 
ADCP,ioos:station:wmo:42379:1,2009-06-02T16:04:00Z,27.3620,-90.1810,73.1,233.0,29.3,12.9,'11111222,11111222,11111222' 
ADCP,ioos:station:wmo:42379:1,2009-06-02T16:24:00Z,27.3620,-90.1810,73.1,224.0,40.4,15.1,'11111222,11111222,11111222' 
ADCP,ioos:station:wmo:42379:1,2009-06-02T16:44:00Z,27.3620,-90.1810,73.1,230.0,34.3,11.5,'11111222,11111222,11111222' 
ADCP,ioos:station:wmo:42379:1,2009-06-02T17:04:00Z,27.3620,-90.1810,73.1,240.0,37.6,8.3,'11111222,11111222,11111222' 
ADCP,ioos:station:wmo:42379:1,2009-06-02T17:24:00Z,27.3620,-90.1810,73.1,232.0,30.1,12.0,'11111222,11111222,11111222' 
ADCP,ioos:station:wmo:42379:1,2009-06-02T17:44:00Z,27.3620,-90.1810,73.1,227.0,29.1,13.1,'11111222,11111222,11111222' 
ADCP,ioos:station:wmo:42379:1,2009-06-02T18:04:00Z,27.3620,-90.1810,73.1,213.0,31.6,11.7,'11111222,11111222,11111222' 
ADCP,ioos:station:wmo:42379:1,2009-06-02T18:24:00Z,27.3620,-90.1810,73.1,205.0,27.8,15.2,'11111222,11111222,11111222' 
ADCP,ioos:station:wmo:42379:1,2009-06-02T18:44:00Z,27.3620,-90.1810,73.1,210.0,28.6,13.3,'11111222,11111222,11111222' 
ADCP,ioos:station:wmo:42379:1,2009-06-02T19:04:00Z,27.3620,-90.1810,73.1,211.0,36.6,16.4,'11111222,11111222,11111222' 
ADCP,ioos:station:wmo:42379:1,2009-06-02T19:24:00Z,27.3620,-90.1810,73.1,218.0,32.4,11.6,'11111222,11111222,11111222' 
ADCP,ioos:station:wmo:42379:1,2009-06-02T19:44:00Z,27.3620,-90.1810,73.1,206.0,24.2,12.3,'11111222,11111222,11111222' 
ADCP,ioos:station:wmo:42379:1,2009-06-02T20:04:00Z,27.3620,-90.1810,73.1,204.0,33.9,10.2,'11111222,11111222,11111222' 
ADCP,ioos:station:wmo:42379:1,2009-06-02T20:24:00Z,27.3620,-90.1810,73.1,219.0,31.2,11.2,'11111222,11111222,11111222' 
ADCP,ioos:station:wmo:42379:1,2009-06-02T20:44:00Z,27.3620,-90.1810,73.1,207.0,29.3,10.2,'11111222,11111222,11111222' 
ADCP,ioos:station:wmo:42379:1,2009-06-02T21:04:00Z,27.3620,-90.1810,73.1,212.0,32.8,11.9,'11111222,11111222,11111222' 
ADCP,ioos:station:wmo:42379:1,2009-06-02T21:24:00Z,27.3620,-90.1810,73.1,216.0,30.6,11.9,'11111222,11111222,11111222' 
ADCP,ioos:station:wmo:42379:1,2009-06-02T21:44:00Z,27.3620,-90.1810,73.1,228.0,23.9,8.8,'11111222,11111222,11111222' 
ADCP,ioos:station:wmo:42379:1,2009-06-02T22:04:00Z,27.3620,-90.1810,73.1,205.0,28.6,7.9,'11111222,11111222,11111222' 
ADCP,ioos:station:wmo:42379:1,2009-06-02T22:24:00Z,27.3620,-90.1810,73.1,225.0,25.0,11.2,'11111222,11111222,11111222' 
ADCP,ioos:station:wmo:42379:1,2009-06-02T22:44:00Z,27.3620,-90.1810,73.1,233.0,19.1,10.2,'11111222,11111222,11111222' 
ADCP,ioos:station:wmo:42379:1,2009-06-02T23:04:00Z,27.3620,-90.1810,73.0,173.0,19.9,21.0,'11111222,11111222,11111222' 
ADCP,ioos:station:wmo:42379:1,2009-06-02T23:24:00Z,27.3620,-90.1810,73.0,214.0,17.9,23.6,'11111222,11111222,11111222' 
ADCP,ioos:station:wmo:42379:1,2009-06-02T23:44:00Z,27.3620,-90.1810,73.1,223.0,20.0,34.1,'11111222,11111222,11111222' 
ADCP,ioos:station:wmo:42379:1,2009-06-03T00:04:00Z,27.3620,-90.1810,73.1,177.0,34.9,21.5,'11111222,11111222,11111222' 
ADCP,ioos:station:wmo:42379:1,2009-06-03T00:24:00Z,27.3620,-90.1810,73.1,157.0,34.4,17.4,'11111222,11111222,11111222' 
ADCP,ioos:station:wmo:42379:1,2009-06-03T00:44:00Z,27.3620,-90.1810,73.1,172.0,27.8,18.9,'11111222,11111222,11111222' 
ADCP,ioos:station:wmo:42379:1,2009-06-03T01:04:00Z,27.3620,-90.1810,73.1,172.0,45.8,19.1,'11111222,11111222,11111222' 
ADCP,ioos:station:wmo:42379:1,2009-06-03T01:24:00Z,27.3620,-90.1810,73.1,157.0,44.5,15.2,'11111222,11111222,11111222' 
ADCP,ioos:station:wmo:42379:1,2009-06-03T01:44:00Z,27.3620,-90.1810,73.1,151.0,47.6,18.2,'11111222,11111222,11111222' 
ADCP,ioos:station:wmo:42379:1,2009-06-03T02:04:00Z,27.3620,-90.1810,73.1,169.0,57.6,23.9,'11111222,11111222,11111222' 
ADCP,ioos:station:wmo:42379:1,2009-06-03T02:24:00Z,27.3620,-90.1810,73.1,173.0,52.1,21.3,'11111222,11111222,11111222' 
ADCP,ioos:station:wmo:42379:1,2009-06-03T02:44:00Z,27.3620,-90.1810,73.1,168.0,38.4,24.8,'11111222,11111222,11111222' 
ADCP,ioos:station:wmo:42379:1,2009-06-03T03:04:00Z,27.3620,-90.1810,73.1,158.0,31.9,18.4,'11111222,11111222,11111222' 
ADCP,ioos:station:wmo:42379:1,2009-06-03T03:24:00Z,27.3620,-90.1810,73.1,152.0,24.5,16.6,'11111222,11111222,11111222' 
ADCP,ioos:station:wmo:42379:1,2009-06-03T03:44:00Z,27.3620,-90.1810,73.1,161.0,23.2,13.7,'11111222,11111222,11111222' 
ADCP,ioos:station:wmo:42379:1,2009-06-03T04:04:00Z,27.3620,-90.1810,73.1,164.0,24.6,17.7,'11111222,11111222,11111222' 
ADCP,ioos:station:wmo:42379:1,2009-06-03T04:24:00Z,27.3620,-90.1810,73.1,154.0,21.6,17.4,'11111222,11111222,11111222' 
ADCP,ioos:station:wmo:42379:1,2009-06-03T04:44:00Z,27.3620,-90.1810,73.1,154.0,21.1,20.3,'11111222,11111222,11111222' 
ADCP,ioos:station:wmo:42379:1,2009-06-03T05:04:00Z,27.3620,-90.1810,73.1,156.0,19.0,17.6,'11111222,11111222,11111222' 
ADCP,ioos:station:wmo:42379:1,2009-06-03T05:24:00Z,27.3620,-90.1810,73.1,154.0,25.4,16.9,'11111222,11111222,11111222' 
ADCP,ioos:station:wmo:42379:1,2009-06-03T05:44:00Z,27.3620,-90.1810,73.1,168.0,20.7,17.6,'11111222,11111222,11111222' 
ADCP,ioos:station:wmo:42379:1,2009-06-03T06:04:00Z,27.3620,-90.1810,73.1,156.0,23.8,13.1,'11111222,11111222,11111222' 
ADCP,ioos:station:wmo:42379:1,2009-06-03T06:24:00Z,27.3620,-90.1810,73.1,172.0,22.9,12.8,'11111222,11111222,11111222' 
ADCP,ioos:station:wmo:42379:1,2009-06-03T06:44:00Z,27.3620,-90.1810,73.1,145.0,19.4,9.0,'11111222,11111222,11111222' 
ADCP,ioos:station:wmo:42379:1,2009-06-03T07:04:00Z,27.3620,-90.1810,73.1,150.0,16.3,9.7,'11111222,11111222,11111222' 
ADCP,ioos:station:wmo:42379:1,2009-06-03T07:24:00Z,27.3620,-90.1810,73.1,164.0,20.4,11.0,'11111222,11111222,11111222' 
ADCP,ioos:station:wmo:42379:1,2009-06-03T07:44:00Z,27.3620,-90.1810,73.1,171.0,22.3,12.9,'11111222,11111222,11111222' 
ADCP,ioos:station:wmo:42379:1,2009-06-03T08:04:00Z,27.3620,-90.1810,73.1,178.0,27.7,12.4,'11111222,11111222,11111222' 
ADCP,ioos:station:wmo:42379:1,2009-06-03T08:24:00Z,27.3620,-90.1810,73.1,204.0,17.9,13.7,'11111222,11111222,11111222' 
ADCP,ioos:station:wmo:42379:1,2009-06-03T08:44:00Z,27.3620,-90.1810,73.1,199.0,20.7,14.8,'11111222,11111222,11111222' 
ADCP,ioos:station:wmo:42379:1,2009-06-03T09:04:00Z,27.3620,-90.1810,73.1,194.0,27.6,13.5,'11111222,11111222,11111222' 
ADCP,ioos:station:wmo:42379:1,2009-06-03T09:24:00Z,27.3620,-90.1810,73.1,203.0,17.8,12.1,'11111222,11111222,11111222' 
ADCP,ioos:station:wmo:42379:1,2009-06-03T09:44:00Z,27.3620,-90.1810,73.1,206.0,22.1,13.0,'11111222,11111222,11111222' 
ADCP,ioos:station:wmo:42379:1,2009-06-03T10:04:00Z,27.3620,-90.1810,73.1,209.0,15.8,12.6,'11111222,11111222,11111222' 
ADCP,ioos:station:wmo:42379:1,2009-06-03T10:24:00Z,27.3620,-90.1810,73.1,199.0,19.6,11.1,'11111222,11111222,11111222' 
ADCP,ioos:station:wmo:42379:1,2009-06-03T10:44:00Z,27.3620,-90.1810,73.1,209.0,16.8,10.1,'11111222,11111222,11111222' 
ADCP,ioos:station:wmo:42379:1,2009-06-03T11:04:00Z,27.3620,-90.1810,73.1,218.0,14.7,10.9,'11111222,11111222,11111222' 
ADCP,ioos:station:wmo:42379:1,2009-06-03T11:24:00Z,27.3620,-90.1810,73.1,209.0,17.1,13.8,'11111222,11111222,11111222' 
ADCP,ioos:station:wmo:42379:1,2009-06-03T11:44:00Z,27.3620,-90.1810,73.1,212.0,10.2,15.8,'11111222,11111222,11111222' 
ADCP,ioos:station:wmo:42379:1,2009-06-03T12:04:00Z,27.3620,-90.1810,73.1,165.0,24.7,18.1,'11111222,11111222,11111222' 
ADCP,ioos:station:wmo:42379:1,2009-06-03T12:24:00Z,27.3620,-90.1810,73.1,156.0,21.5,20.3,'11111222,11111222,11111222' 
ADCP,ioos:station:wmo:42379:1,2009-06-03T12:44:00Z,27.3620,-90.1810,73.1,157.0,16.3,23.7,'11111222,11111222,11111222' 
ADCP,ioos:station:wmo:42379:1,2009-06-03T13:04:00Z,27.3620,-90.1810,73.1,181.0,15.8,23.1,'11111222,11111222,11111222' 
ADCP,ioos:station:wmo:42379:1,2009-06-03T13:24:00Z,27.3620,-90.1810,73.1,181.0,26.8,16.5,'11111222,11111222,11111222' 
ADCP,ioos:station:wmo:42379:1,2009-06-03T13:44:00Z,27.3620,-90.1810,73.1,185.0,25.1,17.4,'11111222,11111222,11111222' 
ADCP,ioos:station:wmo:42379:1,2009-06-03T14:04:00Z,27.3620,-90.1810,73.1,172.0,32.9,19.4,'11111222,11111222,11111222' 
ADCP,ioos:station:wmo:42379:1,2009-06-03T14:24:00Z,27.3620,-90.1810,73.1,169.0,18.8,20.4,'11111222,11111222,11111222' 
ADCP,ioos:station:wmo:42379:1,2009-06-03T14:44:00Z,27.3620,-90.1810,73.1,170.0,19.6,17.1,'11111222,11111222,11111222' 
ADCP,ioos:station:wmo:42379:1,2009-06-03T15:04:00Z,27.3620,-90.1810,73.1,169.0,32.8,16.1,'11111222,11111222,11111222' 
ADCP,ioos:station:wmo:42379:1,2009-06-03T15:24:00Z,27.3620,-90.1810,73.1,176.0,19.3,18.4,'11111222,11111222,11111222' 
ADCP,ioos:station:wmo:42379:1,2009-06-03T15:44:00Z,27.3620,-90.1810,73.1,188.0,16.6,14.5,'11111222,11111222,11111222' 
ADCP,ioos:station:wmo:42379:1,2009-06-03T16:04:00Z,27.3620,-90.1810,73.1,151.0,10.0,17.3,'11111222,11111222,11111222' 
ADCP,ioos:station:wmo:42379:1,2009-06-03T16:24:00Z,27.3620,-90.1810,73.1,171.0,18.2,24.2,'11111222,11111222,11111222' 
ADCP,ioos:station:wmo:42379:1,2009-06-03T16:44:00Z,27.3620,-90.1810,73.1,135.0,4.9,15.0,'11133222,11111222,11111222' 
ADCP,ioos:station:wmo:42379:1,2009-06-03T17:04:00Z,27.3620,-90.1810,73.1,204.0,3.9,13.5,'11133222,11111222,11111222' 
ADCP,ioos:station:wmo:42379:1,2009-06-03T17:24:00Z,27.3620,-90.1810,73.1,193.0,7.6,15.8,'11133222,11111222,11111222' 
ADCP,ioos:station:wmo:42379:1,2009-06-03T17:44:00Z,27.3620,-90.1810,73.1,189.0,10.3,15.6,'11111222,11111222,11111222' 
ADCP,ioos:station:wmo:42379:1,2009-06-03T18:04:00Z,27.3620,-90.1810,73.1,161.0,9.6,16.4,'11133222,11111222,11111222' 
ADCP,ioos:station:wmo:42379:1,2009-06-03T18:24:00Z,27.3620,-90.1810,73.1,151.0,11.5,13.1,'11111222,11111222,11111222' 
ADCP,ioos:station:wmo:42379:1,2009-06-03T18:44:00Z,27.3620,-90.1810,73.1,315.0,0.8,12.5,'11133222,11111222,11111222' 
ADCP,ioos:station:wmo:42379:1,2009-06-03T19:04:00Z,27.3620,-90.1810,73.1,72.0,0.3,16.1,'11133222,11111222,11111222' 